TimeEDT,TemperatureF,Dew PointF,Humidity,Sea Level PressureIn,VisibilityMPH,Wind Direction,Wind SpeedMPH,Gust SpeedMPH,PrecipitationIn,Events,Conditions,WindDirDegrees,DateUTC
12:54 AM,75.0,66.0,73,29.92,10.0,Variable,4.6,-,N/A,,Clear,0,2013-06-02 04:54:00
1:54 AM,75.0,64.9,71,29.92,10.0,Variable,3.5,-,N/A,,Clear,0,2013-06-02 05:54:00
2:54 AM,73.9,66.0,76,29.90,10.0,Variable,4.6,-,N/A,,Clear,0,2013-06-02 06:54:00
3:54 AM,73.0,66.9,81,29.90,10.0,Variable,4.6,-,N/A,,Clear,0,2013-06-02 07:54:00
4:54 AM,73.0,66.9,81,29.89,10.0,Variable,4.6,-,N/A,,Clear,0,2013-06-02 08:54:00
5:54 AM,73.0,66.0,79,29.88,10.0,Variable,4.6,-,N/A,,Clear,0,2013-06-02 09:54:00
6:54 AM,75.0,66.0,73,29.89,10.0,Variable,4.6,-,N/A,,Clear,0,2013-06-02 10:54:00
7:54 AM,77.0,66.0,69,29.89,10.0,SW,8.1,-,N/A,,Clear,220,2013-06-02 11:54:00
8:54 AM,80.1,66.0,62,29.88,10.0,SW,9.2,17.3,N/A,,Clear,230,2013-06-02 12:54:00
9:54 AM,81.0,66.0,60,29.87,10.0,SW,8.1,23.0,N/A,,Partly Cloudy,230,2013-06-02 13:54:00
10:54 AM,82.9,66.0,56,29.87,10.0,SW,10.4,19.6,N/A,,Partly Cloudy,230,2013-06-02 14:54:00
11:54 AM,86.0,66.9,53,29.87,10.0,SSW,6.9,18.4,N/A,,Scattered Clouds,210,2013-06-02 15:54:00
12:54 PM,88.0,66.0,48,29.86,10.0,SW,9.2,20.7,N/A,,Partly Cloudy,220,2013-06-02 16:54:00
1:54 PM,90.0,66.0,45,29.84,10.0,SW,9.2,21.9,N/A,,Mostly Cloudy,230,2013-06-02 17:54:00
2:54 PM,88.0,64.9,46,29.83,10.0,WSW,15.0,19.6,N/A,,Scattered Clouds,240,2013-06-02 18:54:00
3:54 PM,87.1,64.0,46,29.83,10.0,WSW,9.2,-,0.00,,Mostly Cloudy,240,2013-06-02 19:54:00
4:54 PM,84.9,66.9,55,29.82,10.0,SW,8.1,-,N/A,,Clear,230,2013-06-02 20:54:00
5:54 PM,84.9,66.0,53,29.81,10.0,SW,9.2,16.1,N/A,,Partly Cloudy,230,2013-06-02 21:54:00
6:54 PM,84.0,66.9,56,29.81,10.0,SW,8.1,-,N/A,,Clear,230,2013-06-02 22:54:00
7:54 PM,82.9,66.9,58,29.81,10.0,SW,6.9,-,N/A,,Partly Cloudy,220,2013-06-02 23:54:00
8:54 PM,81.0,68.0,65,29.83,10.0,Variable,4.6,-,N/A,,Overcast,0,2013-06-03 00:54:00
9:54 PM,71.1,66.9,87,29.87,7.0,SSW,9.2,26.5,0.00,Rain,Light Rain,200,2013-06-03 01:54:00
10:54 PM,70.0,66.0,87,29.87,10.0,SSW,4.6,-,0.00,,Overcast,200,2013-06-03 02:54:00
11:54 PM,70.0,66.0,87,29.86,10.0,Calm,Calm,-,N/A,,Scattered Clouds,0,2013-06-03 03:54:00